Time,TemperatureF,DewpointF,PressureIn,WindDirection,WindDirectionDegrees,WindSpeedMPH,WindSpeedGustMPH,Humidity,HourlyPrecipIn,Conditions,Clouds,dailyrainin,SoftwareType,DateUTC
2013-01-17 00:02:00,31.0,21.0,30.21,SSW,202,0.0,2.0,66,0.00,,,0.00,,2013-01-17 06:02:00,
2013-01-17 00:12:00,32.0,22.0,30.21,SW,225,0.0,3.0,67,0.00,,,0.00,,2013-01-17 06:12:00,
2013-01-17 00:22:00,32.0,22.0,30.21,SW,225,0.0,3.0,67,0.00,,,0.00,,2013-01-17 06:22:00,
2013-01-17 00:32:00,32.0,22.0,30.22,SSW,202,0.0,0.0,67,0.00,,,0.00,,2013-01-17 06:32:00,
2013-01-17 00:42:00,32.0,22.0,30.22,SSW,202,0.0,0.0,67,0.00,,,0.00,,2013-01-17 06:42:00,
2013-01-17 00:52:00,32.0,22.0,30.23,SW,225,0.0,0.0,67,0.00,,,0.00,,2013-01-17 06:52:00,
2013-01-17 01:02:00,32.0,22.0,30.24,SW,225,0.0,0.0,67,0.00,,,0.00,,2013-01-17 07:02:00,
2013-01-17 01:12:00,32.0,22.0,30.24,SW,225,0.0,0.0,67,0.00,,,0.00,,2013-01-17 07:12:00,
2013-01-17 01:22:00,32.0,22.0,30.24,SW,225,5.0,5.0,67,0.00,,,0.00,,2013-01-17 07:22:00,
2013-01-17 01:32:00,33.0,23.0,30.25,WSW,248,0.0,5.0,67,0.00,,,0.00,,2013-01-17 07:32:00,
2013-01-17 01:42:00,33.0,23.0,30.25,WSW,248,0.0,5.0,67,0.00,,,0.00,,2013-01-17 07:42:00,
2013-01-17 01:52:00,32.0,22.0,30.25,WSW,248,0.0,0.0,66,0.00,,,0.00,,2013-01-17 07:52:00,
2013-01-17 02:02:00,32.0,22.0,30.25,West,270,3.0,5.0,67,0.00,,,0.00,,2013-01-17 08:02:00,
2013-01-17 02:12:00,32.0,22.0,30.25,West,270,3.0,5.0,67,0.00,,,0.00,,2013-01-17 08:12:00,
2013-01-17 02:22:00,33.0,23.0,30.27,West,270,0.0,0.0,67,0.00,,,0.00,,2013-01-17 08:22:00,
2013-01-17 02:32:00,33.0,23.0,30.27,West,270,0.0,2.0,67,0.00,,,0.00,,2013-01-17 08:32:00,
2013-01-17 02:43:00,33.0,23.0,30.27,West,270,0.0,2.0,67,0.00,,,0.00,,2013-01-17 08:43:00,
2013-01-17 02:53:00,31.0,21.0,30.28,SW,236,0.0,5.0,67,0.00,,,0.00,,2013-01-17 08:53:00,
2013-01-17 03:02:00,31.0,22.0,30.28,WSW,248,0.0,0.0,69,0.00,,,0.00,,2013-01-17 09:02:00,
2013-01-17 03:12:00,31.0,22.0,30.28,WSW,248,0.0,0.0,69,0.00,,,0.00,,2013-01-17 09:12:00,
2013-01-17 03:22:00,30.0,21.0,30.28,West,270,0.0,0.0,69,0.00,,,0.00,,2013-01-17 09:22:00,
2013-01-17 03:32:00,29.0,20.0,30.28,West,270,0.0,0.0,69,0.00,,,0.00,,2013-01-17 09:32:00,
2013-01-17 03:42:00,29.0,20.0,30.28,West,270,0.0,0.0,69,0.00,,,0.00,,2013-01-17 09:42:00,
2013-01-17 03:52:00,28.0,20.0,30.28,West,270,0.0,0.0,71,0.00,,,0.00,,2013-01-17 09:52:00,
2013-01-17 04:02:00,28.0,20.0,30.29,WNW,294,0.0,0.0,72,0.00,,,0.00,,2013-01-17 10:02:00,
2013-01-17 04:12:00,28.0,20.0,30.29,WNW,294,0.0,0.0,72,0.00,,,0.00,,2013-01-17 10:12:00,
2013-01-17 04:22:00,29.0,22.0,30.30,WNW,301,0.0,0.0,75,0.00,,,0.00,,2013-01-17 10:22:00,
2013-01-17 04:32:00,30.0,23.0,30.31,WNW,292,0.0,0.0,76,0.00,,,0.00,,2013-01-17 10:32:00,
2013-01-17 04:42:00,30.0,23.0,30.31,WNW,292,0.0,0.0,76,0.00,,,0.00,,2013-01-17 10:42:00,
2013-01-17 04:53:00,29.0,22.0,30.32,WNW,300,0.0,0.0,75,0.00,,,0.00,,2013-01-17 10:53:00,
2013-01-17 05:02:00,29.0,22.0,30.32,WNW,292,0.0,0.0,75,0.00,,,0.00,,2013-01-17 11:02:00,
2013-01-17 05:12:00,29.0,22.0,30.32,WNW,292,0.0,0.0,75,0.00,,,0.00,,2013-01-17 11:12:00,
2013-01-17 05:22:00,30.0,23.0,30.32,WNW,292,0.0,2.0,76,0.00,,,0.00,,2013-01-17 11:22:00,
2013-01-17 05:32:00,31.0,25.0,30.34,NNW,327,0.0,6.0,77,0.00,,,0.00,,2013-01-17 11:32:00,
2013-01-17 05:42:00,31.0,25.0,30.34,NNW,327,0.0,6.0,77,0.00,,,0.00,,2013-01-17 11:42:00,
2013-01-17 05:53:00,29.0,20.0,30.35,NW,315,0.0,0.0,69,0.00,,,0.00,,2013-01-17 11:53:00,
2013-01-17 06:02:00,29.0,19.0,30.35,NNW,338,5.0,5.0,67,0.00,,,0.00,,2013-01-17 12:02:00,
2013-01-17 06:12:00,29.0,19.0,30.35,NNW,338,5.0,5.0,67,0.00,,,0.00,,2013-01-17 12:12:00,
2013-01-17 06:22:00,28.0,18.0,30.36,NNW,338,4.0,6.0,65,0.00,,,0.00,,2013-01-17 12:22:00,
2013-01-17 06:32:00,28.0,17.0,30.37,NW,326,0.0,8.0,64,0.00,,,0.00,,2013-01-17 12:32:00,
2013-01-17 06:42:00,28.0,17.0,30.37,NW,326,0.0,8.0,64,0.00,,,0.00,,2013-01-17 12:42:00,
2013-01-17 06:53:00,27.0,16.0,30.37,North,0,0.0,3.0,64,0.00,,,0.00,,2013-01-17 12:53:00,
2013-01-17 07:03:00,27.0,16.0,30.37,WNW,298,3.0,9.0,63,0.00,,,0.00,,2013-01-17 13:03:00,
2013-01-17 07:12:00,27.0,16.0,30.37,WNW,298,3.0,9.0,63,0.00,,,0.00,,2013-01-17 13:12:00,
2013-01-17 07:22:00,26.0,15.0,30.37,WNW,292,8.0,8.0,63,0.00,,,0.00,,2013-01-17 13:22:00,
2013-01-17 07:33:00,26.0,15.0,30.38,NW,313,1.0,8.0,62,0.00,,,0.00,,2013-01-17 13:33:00,
2013-01-17 07:43:00,26.0,15.0,30.38,NW,313,1.0,8.0,62,0.00,,,0.00,,2013-01-17 13:43:00,
2013-01-17 07:52:00,26.0,14.0,30.38,WNW,292,1.0,3.0,60,0.00,,,0.00,,2013-01-17 13:52:00,
2013-01-17 08:03:00,25.0,13.0,30.39,WNW,292,0.0,3.0,60,0.00,,,0.00,,2013-01-17 14:03:00,
2013-01-17 08:12:00,25.0,13.0,30.39,WNW,292,0.0,3.0,60,0.00,,,0.00,,2013-01-17 14:12:00,
2013-01-17 08:23:00,26.0,14.0,30.40,NW,315,1.0,8.0,60,0.00,,,0.00,,2013-01-17 14:23:00,
2013-01-17 08:33:00,26.0,14.0,30.40,NW,315,2.0,7.0,59,0.00,,,0.00,,2013-01-17 14:33:00,
2013-01-17 08:42:00,26.0,14.0,30.40,NW,315,2.0,7.0,59,0.00,,,0.00,,2013-01-17 14:42:00,
2013-01-17 08:53:00,27.0,13.0,30.41,North,0,5.0,7.0,56,0.00,,,0.00,,2013-01-17 14:53:00,
2013-01-17 09:03:00,28.0,14.0,30.42,WNW,295,1.0,8.0,55,0.00,,,0.00,,2013-01-17 15:03:00,
2013-01-17 09:12:00,28.0,14.0,30.42,WNW,295,1.0,8.0,55,0.00,,,0.00,,2013-01-17 15:12:00,
2013-01-17 09:22:00,28.0,13.0,30.43,North,356,7.0,9.0,52,0.00,,,0.00,,2013-01-17 15:22:00,
2013-01-17 09:33:00,28.0,11.0,30.43,WNW,292,1.0,6.0,49,0.00,,,0.00,,2013-01-17 15:33:00,
2013-01-17 09:43:00,28.0,11.0,30.43,WNW,292,1.0,6.0,49,0.00,,,0.00,,2013-01-17 15:43:00,
2013-01-17 09:53:00,29.0,11.0,30.44,NNW,341,5.0,12.0,46,0.00,,,0.00,,2013-01-17 15:53:00,
2013-01-17 10:02:00,29.0,10.0,30.45,WNW,292,4.0,12.0,45,0.00,,,0.00,,2013-01-17 16:02:00,
2013-01-17 10:12:00,29.0,10.0,30.45,WNW,292,4.0,12.0,45,0.00,,,0.00,,2013-01-17 16:12:00,
2013-01-17 10:22:00,30.0,10.0,30.45,NW,315,9.0,10.0,42,0.00,,,0.00,,2013-01-17 16:22:00,
2013-01-17 10:33:00,30.0,9.0,30.45,NE,45,4.0,10.0,40,0.00,,,0.00,,2013-01-17 16:33:00,
2013-01-17 10:43:00,30.0,9.0,30.45,NE,45,4.0,10.0,40,0.00,,,0.00,,2013-01-17 16:43:00,
2013-01-17 10:53:00,30.0,6.0,30.45,NNW,334,13.0,14.0,36,0.00,,,0.00,,2013-01-17 16:53:00,
2013-01-17 11:03:00,31.0,8.0,30.44,NW,315,3.0,7.0,37,0.00,,,0.00,,2013-01-17 17:03:00,
2013-01-17 11:12:00,31.0,8.0,30.44,NW,315,3.0,7.0,37,0.00,,,0.00,,2013-01-17 17:12:00,
2013-01-17 11:22:00,32.0,7.0,30.44,North,353,0.0,8.0,34,0.00,,,0.00,,2013-01-17 17:22:00,
2013-01-17 11:33:00,31.0,0.0,30.43,NW,315,6.0,9.0,26,0.00,,,0.00,,2013-01-17 17:33:00,
2013-01-17 11:43:00,31.0,0.0,30.43,NW,315,6.0,9.0,26,0.00,,,0.00,,2013-01-17 17:43:00,
2013-01-17 11:53:00,32.0,3.0,30.43,NNW,333,6.0,8.0,28,0.00,,,0.00,,2013-01-17 17:53:00,
2013-01-17 12:03:00,33.0,5.0,30.43,NNE,18,1.0,8.0,30,0.00,,,0.00,,2013-01-17 18:03:00,
2013-01-17 12:12:00,33.0,5.0,30.43,NNE,18,1.0,8.0,30,0.00,,,0.00,,2013-01-17 18:12:00,
2013-01-17 12:22:00,34.0,-4.0,30.43,North,0,2.0,7.0,19,0.00,,,0.00,,2013-01-17 18:22:00,
2013-01-17 12:33:00,35.0,-3.0,30.43,NW,313,3.0,9.0,19,0.00,,,0.00,,2013-01-17 18:33:00,
2013-01-17 12:43:00,35.0,-3.0,30.43,NW,313,3.0,9.0,19,0.00,,,0.00,,2013-01-17 18:43:00,
2013-01-17 12:53:00,37.0,-1.0,30.43,NNE,22,6.0,12.0,19,0.00,,,0.00,,2013-01-17 18:53:00,
2013-01-17 13:03:00,39.0,0.0,30.43,WNW,299,3.0,6.0,19,0.00,,,0.00,,2013-01-17 19:03:00,
2013-01-17 13:12:00,39.0,0.0,30.43,WNW,299,3.0,6.0,19,0.00,,,0.00,,2013-01-17 19:12:00,
2013-01-17 13:22:00,39.0,0.0,30.43,WNW,292,4.0,7.0,19,0.00,,,0.00,,2013-01-17 19:22:00,
2013-01-17 13:33:00,40.0,1.0,30.44,North,351,0.0,7.0,19,0.00,,,0.00,,2013-01-17 19:33:00,
2013-01-17 13:42:00,40.0,1.0,30.44,North,351,0.0,7.0,19,0.00,,,0.00,,2013-01-17 19:42:00,
2013-01-17 13:53:00,39.0,0.0,30.44,NE,37,7.0,9.0,19,0.00,,,0.00,,2013-01-17 19:53:00,
2013-01-17 14:03:00,39.0,0.0,30.44,NNW,341,5.0,7.0,19,0.00,,,0.00,,2013-01-17 20:03:00,
2013-01-17 14:12:00,39.0,0.0,30.44,NNW,341,5.0,7.0,19,0.00,,,0.00,,2013-01-17 20:12:00,
2013-01-17 14:23:00,36.0,-2.0,30.43,WNW,292,8.0,9.0,19,0.00,,,0.00,,2013-01-17 20:23:00,
2013-01-17 14:33:00,36.0,-2.0,30.44,NNW,334,3.0,8.0,19,0.00,,,0.00,,2013-01-17 20:33:00,
2013-01-17 14:43:00,36.0,-2.0,30.44,NNW,334,3.0,8.0,19,0.00,,,0.00,,2013-01-17 20:43:00,
2013-01-17 14:54:00,35.0,-3.0,30.44,NW,315,4.0,9.0,19,0.00,,,0.00,,2013-01-17 20:54:00,
2013-01-17 15:03:00,36.0,-2.0,30.45,NW,315,5.0,10.0,19,0.00,,,0.00,,2013-01-17 21:03:00,
2013-01-17 15:12:00,36.0,-2.0,30.45,NW,315,5.0,10.0,19,0.00,,,0.00,,2013-01-17 21:12:00,
2013-01-17 15:23:00,32.0,-6.0,30.45,NNW,338,0.0,7.0,19,0.00,,,0.00,,2013-01-17 21:23:00,
2013-01-17 15:33:00,33.0,-5.0,30.45,NNE,22,3.0,10.0,19,0.00,,,0.00,,2013-01-17 21:33:00,
2013-01-17 15:42:00,33.0,-5.0,30.45,NNE,22,3.0,10.0,19,0.00,,,0.00,,2013-01-17 21:42:00,
2013-01-17 15:53:00,36.0,-2.0,30.45,NW,315,3.0,7.0,19,0.00,,,0.00,,2013-01-17 21:53:00,
2013-01-17 16:03:00,34.0,-4.0,30.46,NW,312,3.0,8.0,19,0.00,,,0.00,,2013-01-17 22:03:00,
2013-01-17 16:12:00,34.0,-4.0,30.46,NW,312,3.0,8.0,19,0.00,,,0.00,,2013-01-17 22:12:00,
2013-01-17 16:23:00,33.0,-5.0,30.47,WNW,292,4.0,5.0,19,0.00,,,0.00,,2013-01-17 22:23:00,
2013-01-17 16:33:00,33.0,-5.0,30.48,WNW,292,2.0,8.0,19,0.00,,,0.00,,2013-01-17 22:33:00,
2013-01-17 16:42:00,33.0,-5.0,30.48,WNW,292,2.0,8.0,19,0.00,,,0.00,,2013-01-17 22:42:00,
2013-01-17 16:53:00,29.0,-8.0,30.48,North,0,0.0,1.0,19,0.00,,,0.00,,2013-01-17 22:53:00,
2013-01-17 17:03:00,25.0,-11.0,30.48,NNW,338,0.0,7.0,19,0.00,,,0.00,,2013-01-17 23:03:00,
2013-01-17 17:12:00,25.0,-11.0,30.48,NNW,338,0.0,7.0,19,0.00,,,0.00,,2013-01-17 23:12:00,
2013-01-17 17:22:00,23.0,-11.0,30.49,North,0,1.0,6.0,21,0.00,,,0.00,,2013-01-17 23:22:00,
2013-01-17 17:32:00,22.0,-7.0,30.49,NW,315,1.0,2.0,27,0.00,,,0.00,,2013-01-17 23:32:00,
2013-01-17 17:42:00,22.0,-7.0,30.49,NW,315,1.0,2.0,27,0.00,,,0.00,,2013-01-17 23:42:00,
2013-01-17 17:53:00,20.0,-6.0,30.50,NNW,327,0.0,0.0,31,0.00,,,0.00,,2013-01-17 23:53:00,
2013-01-17 18:02:00,20.0,-3.0,30.50,NNW,338,0.0,0.0,35,0.00,,,0.00,,2013-01-18 00:02:00,
2013-01-17 18:12:00,20.0,-3.0,30.50,NNW,338,0.0,0.0,35,0.00,,,0.00,,2013-01-18 00:12:00,
2013-01-17 18:23:00,19.0,-4.0,30.50,NW,318,0.0,0.0,36,0.00,,,0.00,,2013-01-18 00:23:00,
2013-01-17 18:32:00,19.0,-4.0,30.50,NW,318,0.0,0.0,36,0.00,,,0.00,,2013-01-18 00:32:00,
2013-01-17 18:42:00,18.0,-4.0,30.50,NNW,338,0.0,0.0,36,0.00,,,0.00,,2013-01-18 00:42:00,
2013-01-17 18:53:00,17.0,-4.0,30.52,NNW,338,0.0,0.0,39,0.00,,,0.00,,2013-01-18 00:53:00,
2013-01-17 19:02:00,16.0,-4.0,30.53,NNW,338,0.0,0.0,40,0.00,,,0.00,,2013-01-18 01:02:00,
2013-01-17 19:12:00,16.0,-4.0,30.53,NNW,338,0.0,0.0,40,0.00,,,0.00,,2013-01-18 01:12:00,
2013-01-17 19:22:00,15.0,-4.0,30.53,NNW,338,0.0,0.0,42,0.00,,,0.00,,2013-01-18 01:22:00,
2013-01-17 19:33:00,15.0,-3.0,30.53,NNW,338,0.0,0.0,43,0.00,,,0.00,,2013-01-18 01:33:00,
2013-01-17 19:42:00,15.0,-3.0,30.53,NNW,338,0.0,0.0,43,0.00,,,0.00,,2013-01-18 01:42:00,
2013-01-17 19:53:00,14.0,-3.0,30.53,NNW,338,0.0,0.0,45,0.00,,,0.00,,2013-01-18 01:53:00,
2013-01-17 20:02:00,14.0,-3.0,30.53,NNW,338,0.0,0.0,46,0.00,,,0.00,,2013-01-18 02:02:00,
2013-01-17 20:12:00,14.0,-3.0,30.53,NNW,338,0.0,0.0,46,0.00,,,0.00,,2013-01-18 02:12:00,
2013-01-17 20:22:00,14.0,-2.0,30.53,NNW,338,0.0,0.0,49,0.00,,,0.00,,2013-01-18 02:22:00,
2013-01-17 20:32:00,14.0,-1.0,30.53,NW,315,0.0,0.0,50,0.00,,,0.00,,2013-01-18 02:32:00,
2013-01-17 20:42:00,14.0,-1.0,30.53,NW,315,0.0,0.0,50,0.00,,,0.00,,2013-01-18 02:42:00,
2013-01-17 20:53:00,16.0,1.0,30.54,SW,225,0.0,0.0,51,0.00,,,0.00,,2013-01-18 02:53:00,
2013-01-17 21:02:00,17.0,2.0,30.54,WSW,242,4.0,5.0,51,0.00,,,0.00,,2013-01-18 03:02:00,
2013-01-17 21:12:00,17.0,2.0,30.54,WSW,242,4.0,5.0,51,0.00,,,0.00,,2013-01-18 03:12:00,
2013-01-17 21:22:00,18.0,2.0,30.55,SW,225,0.0,0.0,49,0.00,,,0.00,,2013-01-18 03:22:00,
2013-01-17 21:33:00,18.0,2.0,30.55,SW,225,0.0,0.0,48,0.00,,,0.00,,2013-01-18 03:33:00,
2013-01-17 21:42:00,18.0,2.0,30.55,SW,225,0.0,0.0,48,0.00,,,0.00,,2013-01-18 03:42:00,
2013-01-17 21:53:00,18.0,1.0,30.55,SW,225,0.0,0.0,47,0.00,,,0.00,,2013-01-18 03:53:00,
2013-01-17 22:02:00,18.0,1.0,30.55,WSW,248,0.0,0.0,47,0.00,,,0.00,,2013-01-18 04:02:00,
2013-01-17 22:12:00,18.0,1.0,30.55,WSW,248,0.0,0.0,47,0.00,,,0.00,,2013-01-18 04:12:00,
2013-01-17 22:22:00,17.0,0.0,30.55,WSW,248,0.0,0.0,46,0.00,,,0.00,,2013-01-18 04:22:00,
2013-01-17 22:32:00,17.0,0.0,30.55,WSW,248,0.0,0.0,47,0.00,,,0.00,,2013-01-18 04:32:00,
2013-01-17 22:42:00,17.0,0.0,30.55,WSW,248,0.0,0.0,47,0.00,,,0.00,,2013-01-18 04:42:00,
2013-01-17 22:53:00,17.0,1.0,30.54,SW,225,0.0,0.0,48,0.00,,,0.00,,2013-01-18 04:53:00,
2013-01-17 23:03:00,17.0,1.0,30.54,SW,225,0.0,0.0,48,0.00,,,0.00,,2013-01-18 05:03:00,
2013-01-17 23:12:00,17.0,1.0,30.54,SW,225,0.0,0.0,48,0.00,,,0.00,,2013-01-18 05:12:00,
2013-01-17 23:22:00,15.0,-1.0,30.55,SW,225,0.0,0.0,48,0.00,,,0.00,,2013-01-18 05:22:00,
2013-01-17 23:33:00,15.0,-1.0,30.54,SW,225,0.0,0.0,49,0.00,,,0.00,,2013-01-18 05:33:00,
2013-01-17 23:42:00,15.0,-1.0,30.54,SW,225,0.0,0.0,49,0.00,,,0.00,,2013-01-18 05:42:00,
2013-01-17 23:53:00,14.0,-2.0,30.54,SW,225,0.0,0.0,49,0.00,,,0.00,,2013-01-18 05:53:00,